AO-07 1 07530U 74089B 24102.60708275 -.00000048 00000-0 -77209-5 0 9991 2 07530 101.9776 96.6354 0012004 210.0821 265.5906 12.53674015260692 UO-11 1 14781U 84021B 24102.51888524 .00001802 00000-0 21052-3 0 9990 2 14781 97.6998 73.8334 0006659 304.2716 55.7869 14.86326249138588 AO-16 1 20439U 90005D 24102.61123819 .00000213 00000-0 94126-4 0 9994 2 20439 98.9016 105.8711 0011593 50.9315 71.0053 14.33323188787798 LO-19 1 20442U 90005G 24102.49689038 .00000235 00000-0 10185-3 0 9990 2 20442 98.8807 91.0229 0012206 26.4133 333.7670 14.33482095788222 AO-27 1 22825U 93061C 24102.87897837 .00000135 00000-0 69463-4 0 9995 2 22825 98.7960 154.9417 0007294 272.7755 87.2592 14.30454791593400 IO-26 1 22826U 93061D 24102.38562234 .00000163 00000-0 79598-4 0 9993 2 22826 98.7908 154.3052 0007868 257.4543 102.5759 14.30831833593349 FO-29 1 24278U 96046B 24102.57442679 .00000056 00000-0 94054-4 0 9998 2 24278 98.5757 45.9719 0350237 0.9871 359.1888 13.53179899365423 NOAA-15 1 25338U 98030A 24102.81588640 .00000200 00000-0 10099-3 0 9994 2 25338 98.5757 131.3111 0010964 153.3825 206.7920 14.26531277347976 GO-32 1 25397U 98043D 24102.48809929 .00000134 00000-0 78480-4 0 9997 2 25397 98.9159 68.2395 0001626 34.7340 325.3944 14.24013496337926 ISS 1 25544U 98067A 24102.84909925 .00011987 00000-0 21690-3 0 9992 2 25544 51.6407 284.3249 0004560 57.5355 77.8885 15.50099341448255 NO-44 1 26931U 01043C 24102.46982659 .00000181 00000-0 99821-4 0 9990 2 26931 67.0496 143.9076 0006052 281.6638 78.3784 14.31170843176409 SO-50 1 27607U 02058C 24102.25189121 .00001522 00000-0 22497-3 0 9992 2 27607 64.5539 67.2298 0032547 144.1954 216.1341 14.78590400146422 CO-55 1 27844U 03031E 24102.58405492 .00000441 00000-0 21449-3 0 9990 2 27844 98.6799 110.5408 0009316 345.3983 14.6925 14.23155246 78317 CO-57 1 27848U 03031J 24102.56267232 .00000366 00000-0 18341-3 0 9993 2 27848 98.6830 110.8010 0009555 1.6791 358.4418 14.22612139 78069 RS-22 1 27939U 03042A 24102.85221229 .00001503 00000-0 26155-3 0 9990 2 27939 98.2823 258.0495 0011020 269.1498 228.6574 14.69589348 98536 NOAA-18 1 28654U 05018A 24102.79689898 .00000253 00000-0 15905-3 0 9995 2 28654 98.8761 180.3109 0013293 249.2440 110.7308 14.13164326973887 CO-58 1 28895U 05043F 24102.62555138 .00002251 00000-0 40790-3 0 9991 2 28895 98.1910 238.4185 0015675 203.8035 156.2445 14.67220741984695 CO-65 1 32785U 08021C 24102.87836153 .00004157 00000-0 37837-3 0 9994 2 32785 97.7503 68.8343 0011053 177.2200 182.9084 14.95683875865635 AAUSAT2 1 32788U 08021F 24102.50145288 .00018669 00000-0 10365-2 0 9998 2 32788 97.5927 82.7357 0008280 60.3531 299.8524 15.13753673868223 CO-66 1 32791U 08021J 24102.42822434 .00007231 00000-0 55495-3 0 9995 2 32791 97.6865 74.0830 0006894 142.9260 217.2441 15.02063191866490 RS-30 1 32953U 08025A 24102.83609574 .00000023 00000-0 92987-4 0 9992 2 32953 82.4996 130.7618 0018190 247.8938 112.0211 12.43138565720889 PRISM 1 33493U 09002B 24102.59422676 .00016887 00000-0 88795-3 0 9993 2 33493 98.2134 144.6375 0014561 116.6902 243.5820 15.15663592828941 NOAA-19 1 33591U 09005A 24102.88071826 .00000212 00000-0 13793-3 0 9995 2 33591 99.0540 157.9614 0014837 118.1190 242.1482 14.12965269782260 SRMSAT 1 37841U 11058D 24102.56947844 .00000492 00000-0 12464-3 0 9999 2 37841 19.9714 199.6939 0011971 82.0060 306.3023 14.11071928645362 HRBE 1 37855U 11061F 24102.32483807 .00112971 00000-0 13614-2 0 9999 2 37855 101.6887 245.2742 0064132 191.2776 168.7030 15.57871937682550 RS-40 1 38735U 12041C 24102.59177510 .00000032 00000-0 16143-3 0 9991 2 38735 82.4792 211.3866 0016934 7.6965 352.4371 12.42605887530908 ZACUBE-1 1 39417U 13066B 24102.85186743 .00005351 00000-0 57125-3 0 9998 2 39417 97.7296 60.3793 0052461 22.0075 338.3378 14.88211403561715 Delfi-N3xt 1 39428U 13066N 24102.36138541 .00006227 00000-0 82041-3 0 9997 2 39428 97.8396 22.5192 0101665 305.9334 53.2476 14.76885246556225 GOMX-1 1 39430U 13066Q 24102.75090525 .00002350 00000-0 39806-3 0 9996 2 39430 97.7417 341.1459 0142760 103.8129 257.9006 14.63617721553322 LO-74 1 39440U 13066AA 24102.84966990 .00003960 00000-0 47872-3 0 9995 2 39440 97.8093 48.0161 0072459 129.8524 230.9094 14.82399739559704 AO-73 1 39444U 13066AE 24102.46291324 .00006417 00000-0 64285-3 0 9996 2 39444 97.7150 62.9662 0049537 5.3961 354.7781 14.90791740560163 SPROUT 1 39770U 14029E 24102.64659054 .00072289 00000-0 25508-2 0 9990 2 39770 98.0093 249.1988 0002591 306.8336 53.2664 15.28957423537427 DTUSAT-2 1 40030U 14033W 24102.81389174 .00007164 00000-0 62512-3 0 9995 2 40030 98.0040 53.5857 0010971 28.8641 331.3184 14.97110359533273 EO-80 1 40032U 14033Y 24102.85147595 .00006097 00000-0 53239-3 0 9990 2 40032 98.0017 53.6372 0010594 25.2117 334.9619 14.97151893533261 HODOYOSHI-1 1 40299U 14070B 24102.85017215 .00018583 00000-0 40666-3 0 9994 2 40299 97.1462 163.9179 0006523 272.4465 87.6038 15.44160369524874 XW-2C 1 40906U 15049H 24102.79690678 .00022860 00000-0 61251-3 0 9995 2 40906 97.4845 118.0803 0009921 166.3048 193.8468 15.37962066474254 XW-2D 1 40907U 15049J 24102.83190938 .00030652 00000-0 68758-3 0 9992 2 40907 97.4792 120.0231 0009121 153.4626 206.7090 15.43307990474447 LILACSAT-2 1 40908U 15049K 24102.81795280 .00007793 00000-0 31720-3 0 9991 2 40908 97.5275 111.1141 0011503 215.2586 144.7892 15.24730404473376 XW-2B 1 40911U 15049N 24102.83016491 .00029527 00000-0 67488-3 0 9996 2 40911 97.4768 120.2073 0009133 155.3514 204.8171 15.42755105474310 IO-86 1 40931U 15052B 24102.40245062 .00001244 00000-0 81256-4 0 9999 2 40931 6.0137 109.8606 0013452 219.4572 140.4575 14.77727310461568 ChubuSat-2 1 41338U 16012B 24102.68732373 .00005301 00000-0 33660-3 0 9997 2 41338 31.0010 98.5201 0011935 287.4430 72.4902 15.07270429447554 ChubuSat-3 1 41339U 16012C 24102.67329269 .00004574 00000-0 29338-3 0 9991 2 41339 31.0077 96.7121 0011905 292.7178 67.2201 15.06805059447538 Horyu-4 1 41340U 16012D 24102.54980189 .00011683 00000-0 61653-3 0 9998 2 41340 31.0036 49.2531 0010130 9.8286 350.2551 15.14256822448035 e-st@r-II 1 41459U 16025D 24102.42599307 .00291876 00000-0 15656-2 0 9993 2 41459 98.1304 346.0771 0038612 113.2359 247.2979 15.78413245439121 Lapan A3 1 41603U 16040E 24102.83609646 .00003142 00000-0 13006-3 0 9999 2 41603 97.1468 119.5749 0011439 345.8089 14.2826 15.24583647433112 Pratham 1 41783U 16059A 24102.59683494 .00000832 00000-0 16407-3 0 9995 2 41783 97.8426 125.0536 0031513 230.1120 129.7312 14.64662570402793 CAS-2T 1 41847U 16066G 24102.72431595 .00001315 00000-0 20096-3 0 9998 2 41847 98.4645 174.5130 0355419 17.6705 343.6484 14.40983368389925 CAS-4B 1 42759U 17034B 24102.84671320 .00014168 00000-0 55817-3 0 9991 2 42759 43.0139 240.7443 0013754 271.9184 88.0092 15.25365424377264 CAS-4A 1 42761U 17034D 24102.85340385 .00013806 00000-0 54213-3 0 9996 2 42761 43.0165 239.1027 0012701 276.7869 83.1536 15.25505883377275 NIUSat 1 42766U 17036B 24102.82153956 .00356571 49315-4 11606-2 0 9999 2 42766 97.1012 138.2759 0003827 144.2376 215.9155 15.90681738379161 Aalto 1 1 42775U 17036L 24102.84699745 .00048069 00000-0 68855-3 0 9995 2 42775 97.1141 132.1988 0008123 98.1635 262.0542 15.56003651378751 URSA MAIOR 1 42776U 17036M 24102.88510136 .00089699 00000-0 89298-3 0 9994 2 42776 97.1111 135.4045 0006489 98.2875 261.9121 15.65392367378957 Max Valier Sat 1 42778U 17036P 24102.57152869 .00088433 00000-0 86648-3 0 9998 2 42778 97.1109 139.1946 0006784 104.3198 255.8816 15.65794909379088 D-SAT 1 42794U 17036AF 24102.50514277 .00009203 00000-0 66413-3 0 9990 2 42794 97.4945 86.8222 0109513 14.4835 345.9485 14.99550103370722 TechnoSat 1 42829U 17042E 24102.50903624 .00003216 00000-0 29209-3 0 9994 2 42829 97.3831 287.3488 0011527 300.6813 59.3273 14.95873792367207 AO-91 1 43017U 17073E 24102.62024631 .00008220 00000-0 52307-3 0 9998 2 43017 97.5881 340.5077 0216479 155.6057 205.5596 14.91642045345739 TianYi 2 1 43155U 18008A 24102.86722525 .00050389 00000-0 98420-3 0 9992 2 43155 97.2458 156.1509 0005745 312.1422 47.9339 15.47298638344603 Zhou Enlai 1 43156U 18008B 24102.88416840 .00073516 00000-0 11908-2 0 9997 2 43156 97.2501 157.3495 0003858 300.0163 60.0707 15.52538648344598 TianYi 6 1 43158U 18008D 24102.88160450 .00034451 00000-0 87590-3 0 9998 2 43158 97.2612 151.6447 0005501 332.7503 27.3454 15.39524591344248 S-Net D 1 43186U 18014G 24102.46082851 .00004176 00000-0 30987-3 0 9997 2 43186 97.5974 5.5009 0009036 224.4310 135.6192 15.03572226338473 S-Net B 1 43187U 18014H 24102.46279999 .00004551 00000-0 33729-3 0 9993 2 43187 97.5982 5.4472 0010088 220.4317 139.6160 15.03567249338476 S-Net A 1 43188U 18014J 24102.72822547 .00004541 00000-0 33644-3 0 9991 2 43188 97.5986 5.8153 0009906 219.7842 140.2659 15.03576759338514 S-Net C 1 43189U 18014K 24102.46501345 .00004571 00000-0 33852-3 0 9997 2 43189 97.6002 5.4907 0012007 214.6723 145.3721 15.03569213337024 Changshagaoxin 1 43669U 18083H 24102.42921245 .00236240 00000-0 14058-2 0 9993 2 43669 97.3322 139.3861 0005168 147.2261 212.9326 15.77288711303255 Ten-Koh 1 43677U 18084G 24102.37653454 .00003761 00000-0 34624-3 0 9993 2 43677 98.0539 254.0138 0013308 235.1378 124.8592 14.95317966296739 PO-101 1 43678U 18084H 24102.88417336 .00001617 00000-0 15401-3 0 9997 2 43678 98.0630 258.9813 0008237 247.6673 112.3674 14.94864633297018 QO-100 1 43700U 18090A 24102.59528330 .00000136 00000-0 00000-0 0 9996 2 43700 0.0171 181.1428 0001123 220.0184 39.2180 1.00271958 19684 MinXSS-2 1 43758U 18099A 24102.62095422 .00007909 00000-0 52894-3 0 9999 2 43758 97.5599 166.0683 0018019 180.9483 179.1714 15.07091785292753 AO-95 1 43770U 18099N 24102.69108413 .00006231 00000-0 45060-3 0 9999 2 43770 97.5531 162.0012 0013316 222.2402 137.7799 15.04312513292565 RANGE-B 1 43772U 18099Q 24102.67925608 .00008829 00000-0 58162-3 0 9994 2 43772 97.5294 165.2676 0006854 134.6591 225.5197 15.07727179292691 RANGE-A 1 43773U 18099R 24102.41594446 .00003728 00000-0 29279-3 0 9999 2 43773 97.5137 157.8118 0015219 198.7889 161.2776 15.01410107292415 MOVE-II 1 43780U 18099Y 24102.41650879 .00012785 00000-0 73668-3 0 9994 2 43780 97.5270 166.1606 0007633 196.1499 163.9490 15.12509734292820 SNUSat 2 1 43782U 18099AA 24102.13888119 .00004339 00000-0 32085-3 0 9999 2 43782 97.5201 160.9698 0016036 165.0079 195.1626 15.03601394292491 SnugLite 1 43784U 18099AC 24102.40521098 .00005555 00000-0 39935-3 0 9993 2 43784 97.5020 160.6162 0005582 161.1421 199.0013 15.04632956292590 ITASat 1 1 43786U 18099AE 24102.71606702 .00006023 00000-0 44994-3 0 9997 2 43786 97.5158 161.8856 0017665 216.1233 143.8800 15.03043025292586 EAGLET 1 1 43790U 18099AJ 24102.43941658 .00004145 00000-0 32073-3 0 9991 2 43790 97.5373 162.0675 0014522 196.7979 163.2767 15.01923445292254 ESEO 1 43792U 18099AL 24102.60554730 .00001563 00000-0 13295-3 0 9999 2 43792 97.5234 159.5025 0011933 194.4202 165.6682 14.99165348292224 CSIM 1 43793U 18099AM 24102.13603405 .00014133 00000-0 81372-3 0 9990 2 43793 97.5339 167.5513 0014330 179.5024 180.6224 15.12452287292633 JO-97 1 43803U 18099AX 24102.41933006 .00006785 00000-0 47276-3 0 9995 2 43803 97.5270 162.6287 0011283 162.9018 197.2591 15.05696380292644 Suomi 100 1 43804U 18099AY 24102.70576795 .00007242 00000-0 51188-3 0 9992 2 43804 97.5347 162.7155 0017175 164.9470 195.2271 15.05068694292672 CHOMPTT 1 43855U 18104G 24102.59189761 .00203688 00000-0 98131-3 0 9996 2 43855 85.0088 317.9069 0003065 219.9366 140.1683 15.82078300297073 ISAT 1 43879U 18111D 24102.59272203 .00008828 00000-0 57026-3 0 9991 2 43879 97.6249 8.6952 0011908 219.3038 140.7327 15.08417876289375 UWE-4 1 43880U 18111E 24102.54137680 .00008441 00000-0 55572-3 0 9992 2 43880 97.6165 8.8208 0015401 232.0645 127.9192 15.07691186287381 Sparrow 1 43881U 18111F 24102.32032469 .00008595 00000-0 54880-3 0 9999 2 43881 97.6325 10.2031 0008197 269.2198 90.8091 15.08881519289391 AISTechSat 3 1 44103U 19018AB 24102.55483928 .00756777 28046-3 12439-2 0 9997 2 44103 97.1854 170.2260 0009408 239.1551 120.8804 16.03155489281100 AISat 1 1 44104U 19018AC 24102.55328414 .00092089 00000-0 61137-3 0 9992 2 44104 97.3618 209.0165 0021964 227.2882 132.6534 15.74858450282312 Prox-1 1 44339U 19036A 24102.19838837 .00008083 00000-0 14338-2 0 9998 2 44339 24.0004 295.8257 0009231 337.2392 22.7692 14.65042002255405 SONATE 1 44400U 19038Q 24102.54133618 .00017696 00000-0 59472-3 0 9992 2 44400 97.7127 93.8302 0016235 351.1715 8.9237 15.30769134263876 BeeSat 9 1 44412U 19038AC 24102.53554007 .00133916 00000-0 13411-2 0 9999 2 44412 97.6841 104.2169 0002404 318.2993 41.8082 15.65115677264302 JAISAT-1 1 44419U 19038F 24102.55489734 .00124186 00000-0 12993-2 0 9995 2 44419 97.6827 105.2639 0002404 322.4673 37.6417 15.64035216264683 Taurus 1 1 44530U 19059C 24102.86465050 .00005123 00000-0 12259-2 0 9995 2 44530 98.5679 221.3712 0011688 250.2124 109.7812 14.53963267242125 Duchifat 3 1 44854U 19089C 24102.37022549 .00012200 00000-0 66662-3 0 9997 2 44854 36.9580 93.9171 0010153 256.6647 103.2967 15.13693742238130 OPS-SAT 1 44878U 19092F 24102.56240434 .00137690 00000-0 11417-2 0 9991 2 44878 97.4458 305.2076 0003728 145.9126 214.2376 15.69781984240055 TO-108 1 44881U 19093C 24102.81105125 .00001170 00000-0 14858-3 0 9997 2 44881 97.8303 180.8801 0014674 174.6497 185.4877 14.83455995233206 FloripaSat 1 1 44885U 19093G 24102.78875992 .00005094 00000-0 54462-3 0 9997 2 44885 97.8411 185.9198 0013529 169.7644 190.3851 14.89131076233486 RS-44 1 44909U 19096E 24102.57939251 .00000029 00000-0 72251-4 0 9993 2 44909 82.5210 149.0369 0217037 206.6574 152.3239 12.79728501200456 BY70-2 1 45857U 20042B 24102.82843455 .00055287 00000-0 29994-2 0 9997 2 45857 97.9087 192.9009 0004646 110.6453 249.5277 15.14335558204452 UPMSat 2 1 46276U 20061E 24102.44012991 .00012601 00000-0 42045-3 0 9991 2 46276 97.3027 169.5739 0001620 70.7526 289.3890 15.31193587199956 AmicalSat 1 46287U 20061R 24102.67856192 .00022833 00000-0 73538-3 0 9996 2 46287 97.3550 170.1345 0003300 120.3546 239.8023 15.32202903199368 SALSAT 1 46495U 20068K 24102.45779361 .00005281 00000-0 31221-3 0 9993 2 46495 97.8115 60.1610 0014276 173.2771 186.8652 15.11842979194224 AO-109 1 47311U 21002C 24102.32618385 .00582994 15310-3 13339-2 0 9997 2 47311 60.6597 320.3054 0008370 111.0613 249.1404 15.96954462180801 ExoCube 2 1 47319U 21002L 24102.88970404 .00337380 49678-4 12701-2 0 9993 2 47319 60.6602 323.6038 0013224 104.0348 256.2240 15.87338568180760 UVSQ-SAT 1 47438U 21006AB 24102.42566955 .00033053 00000-0 81942-3 0 9997 2 47438 97.3342 162.3545 0008360 103.2044 257.0136 15.40283232178430 YUSAT 1 1 47439U 21006AC 24102.12078645 .00066117 00000-0 11116-2 0 9991 2 47439 97.3323 165.2481 0006162 102.7133 257.4809 15.51511615178591 SOMP 2b 1 47445U 21006AJ 24102.70745253 .00029600 00000-0 78342-3 0 9999 2 47445 97.3309 161.2203 0008502 108.3682 251.8489 15.38299339178415 IDEASSat 1 47458U 21006AX 24102.12566147 .00026417 00000-0 74576-3 0 9990 2 47458 97.3417 161.3105 0008446 110.6596 249.5554 15.36320239178271 CubeSX-Sirius-HSE 1 47951U 21022V 24102.86455911 .00015550 00000-0 67439-3 0 9999 2 47951 97.4672 1.5274 0015886 20.0580 340.1277 15.22330883168470 CubeSX-HSE 1 47952U 21022W 24102.82258528 .00014857 00000-0 64271-3 0 9991 2 47952 97.4671 1.5662 0015796 19.6555 340.5287 15.22428251168479 KSU-Cubesat 1 47954U 21022Y 24102.66174562 .00019604 00000-0 79273-3 0 9993 2 47954 97.4682 2.4529 0014699 17.4199 342.7540 15.24665831168235 GRBAlpha 1 47959U 21022AD 24102.85691785 .00015658 00000-0 67509-3 0 9994 2 47959 97.4676 1.7379 0015633 19.6974 340.4863 15.22532911167302 Orbicraft-Zorkiy 1 47960U 21022AE 24102.86338317 .00017279 00000-0 70968-3 0 9990 2 47960 97.4715 2.8045 0014859 17.5024 342.6723 15.24165498168047 STECCO 1 47962U 21022AG 24102.86177480 .00055228 00000-0 12206-2 0 9990 2 47962 97.4684 9.9618 0006337 5.6538 354.4780 15.43641361167848 MO-110 1 47964U 21022AJ 24102.49004121 .00072319 00000-0 14354-2 0 9998 2 47964 97.4704 10.9320 0006524 358.9455 1.1779 15.46730606167865 TUBIN 1 48900U 21059X 24102.88925090 .00013391 00000-0 50125-3 0 9991 2 48900 97.6368 245.7607 0006497 319.4765 40.5989 15.27413597154799 LEDSAT 1 49069U 21073D 24102.71815822 .00013576 00000-0 59432-3 0 9992 2 49069 97.4419 174.4115 0021507 155.5371 204.6890 15.21945390146334 CUTE 1 49263U 21088D 24102.69736160 .00012619 00000-0 64718-3 0 9998 2 49263 97.5026 169.2539 0013323 312.6124 47.3985 15.16609410139553 TeikyoSat 4 1 49396U 21102B 24102.58700415 .00002081 00000-0 15513-3 0 9995 2 49396 97.4687 149.8630 0015138 137.0546 223.1865 15.03858316132743 Z-Sat 1 49399U 21102E 24102.85309554 .00003590 00000-0 23893-3 0 9993 2 49399 97.4390 151.5265 0022432 123.4570 236.8807 15.07551451132990 KOSEN 1 1 49402U 21102H 24102.88895305 .00006138 00000-0 37684-3 0 9999 2 49402 97.4311 152.7767 0020862 109.8337 250.5144 15.10271856133138 HO-113 1 50466U 21131B 24102.81818401 .00000653 00000-0 22390-3 0 9992 2 50466 98.5275 188.2084 0003406 339.2484 20.8564 14.39473722120455 Tevel-3 1 50988U 22002E 24102.85859466 .00065055 00000-0 11723-2 0 9993 2 50988 97.3853 176.2919 0005196 223.2411 136.8433 15.49556025124724 Tevel-8 1 50989U 22002F 24102.82951669 .00062131 00000-0 11253-2 0 9999 2 50989 97.3871 176.3499 0005185 223.0941 136.9904 15.49423540124711 Tevel-5 1 50998U 22002Q 24102.84988519 .00073372 00000-0 11919-2 0 9993 2 50998 97.3838 177.2983 0005891 217.1446 142.9400 15.52447862124793 Tevel-6 1 50999U 22002R 24102.85259836 .00074276 00000-0 12105-2 0 9990 2 50999 97.3833 177.2788 0005804 217.2931 142.7920 15.52354161124790 Tevel-1 1 51013U 22002AF 24102.81802709 .00062365 00000-0 11297-2 0 9994 2 51013 97.3849 176.1270 0005204 223.7157 136.3683 15.49418588124712 IRIS-A 1 51044U 22002BN 24102.41140816 .00013879 00000-0 50593-3 0 9997 2 51044 97.3905 169.2916 0005304 260.7095 99.3545 15.28277300124214 Tevel-7 1 51062U 22002CG 24102.82147326 .00062531 00000-0 11283-2 0 9996 2 51062 97.3867 176.3154 0005285 222.9710 137.1129 15.49528541124719 Tevel-4 1 51063U 22002CH 24102.85026057 .00061484 00000-0 11200-2 0 9992 2 51063 97.3868 176.2680 0005274 222.9062 137.1778 15.49261446124710 Tevel-2 1 51069U 22002CP 24102.85746862 .00064345 00000-0 11582-2 0 9993 2 51069 97.3850 176.2582 0005193 222.7757 137.3091 15.49591077124724 SO-115 1 51080U 22002DA 24101.44723228 .00163866 00000-0 16586-2 0 9998 2 51080 97.4134 182.8165 0007115 245.6245 114.4271 15.64727210124830 SO-114 1 51081U 22002DB 24102.48057707 .00155937 00000-0 14514-2 0 9995 2 51081 97.4127 184.1060 0007303 243.1724 116.8790 15.66858943125019 OreSat0 1 52017U 22026K 24102.59199640 .00042992 00000-0 94794-3 0 9991 2 52017 97.5020 114.3322 0017433 100.7186 259.6026 15.43628840115409 Planetum 1 1 52738U 22057G 24102.33133748 .00029130 00000-0 85927-3 0 9991 2 52738 97.5585 226.4230 0004590 29.6959 330.4543 15.34948547104291 Foresail-1 1 52766U 22057AL 24102.89283552 .00015998 00000-0 57556-3 0 9996 2 52766 97.5738 227.0392 0009444 8.6782 351.4619 15.28652016104318 SNUGLITE 2 1 52899U 22065F 24102.88194386 .00001462 00000-0 31098-3 0 9991 2 52899 98.1089 245.3635 0007601 9.3359 350.7982 14.60465954 94585 IO-117 1 53106U 22080B 24099.70722617 -.00000003 00000-0 00000-0 0 9997 2 53106 70.1414 216.6532 0008047 121.1128 239.0321 6.42557348 40800 SelfieSat 1 53951U 22057BC 24102.62903040 .00056566 00000-0 12645-2 0 9990 2 53951 97.5616 229.3775 0004478 0.2035 359.9214 15.43305338104482 FO-118 1 54684U 22167C 24102.86407867 .00020447 00000-0 80400-3 0 9992 2 54684 97.5975 246.3723 0010062 19.8430 340.3197 15.25650366 74177 SSS-2B 1 56184U 23054G 24102.80654491 .00024992 00000-0 72443-3 0 9993 2 56184 97.3767 0.4672 0009883 63.2824 296.9430 15.35490012 55932 CIRBE 1 56188U 23054L 24102.70322317 .00043688 00000-0 99843-3 0 9991 2 56188 97.3684 1.4020 0008092 58.7533 301.4506 15.42684032 56009 INSPIRE-Sat 7 1 56211U 23054AK 24102.24546963 .00044321 00000-0 96703-3 0 9999 2 56211 97.3738 1.9973 0010464 40.2491 319.9530 15.44039334 55992 RoseyCubesat 1 1 56212U 23054AL 24102.84159991 .00047632 00000-0 96087-3 0 9990 2 56212 97.3735 3.0538 0009960 37.7973 322.3974 15.46336835 56118 SO-120 1 56992U 23084BU 24102.82468646 .00020852 00000-0 87696-3 0 9997 2 56992 97.5241 221.7287 0013825 254.1247 105.8466 15.23340976 46060 MRC-100 1 56993U 23084BV 24102.60709087 .00026001 00000-0 10516-2 0 9999 2 56993 97.5246 221.7329 0013607 254.4004 105.5731 15.24615396 46058 UmKA 1 (RS40S) 1 57172U 23091G 24102.86975821 .00004441 00000-0 30411-3 0 9997 2 57172 97.6194 155.6108 0016487 353.7812 6.3208 15.06483744 43504 CubeBel-2 (EU11S) 1 57175U 23091K 24102.84226687 .00006041 00000-0 40882-3 0 9998 2 57175 97.6182 155.4822 0015165 5.3838 354.7550 15.06795299 43494 VERONIKA 1 58261U 23174F 24102.82287422 .00014654 00000-0 72184-3 0 9998 2 58261 97.4636 178.3568 0014139 116.8272 243.4409 15.17976903 23630 KAFASAT 1 58317U 23174BP 24102.83150977 .00018178 00000-0 83342-3 0 9998 2 58317 97.4584 178.6947 0012677 97.6299 262.6376 15.20435815 23663 ENSO 1 58470U 23185J 24102.86280100 .00012895 00000-0 59159-3 0 9994 2 58470 97.4318 170.3913 0014560 148.9880 211.2217 15.20466471 20055 EIRSAT-1 1 58472U 23185L 24102.85462362 .00013784 00000-0 62706-3 0 9997 2 58472 97.4312 170.3885 0014322 150.0169 210.1890 15.20744874 20050 SO-121 1 58567U 23174CY 24102.17921846 .00030733 00000-0 13313-2 0 9994 2 58567 97.4588 178.0561 0014391 111.1181 249.1595 15.22246657 23565 Clark sat-1 (AMBITIOUS) 1 58613U 98067WE 24102.76005444 .01454726 13581-2 18424-2 0 9992 2 58613 51.6205 269.6595 0012488 290.0619 69.9049 16.06942686 18145 SONATE-2 1 59112U 24043Q 24102.57953547 .00009513 00000-0 48811-3 0 9998 2 59112 97.4688 227.2720 0016322 163.9964 196.1788 15.16628410 5702 /EX
